sat.trackr.live / text

‹ back to catalog

STARLINK-31917

NORAD 59669 · 2024-084R

PAYLOAD ACTIVE UNKNOWN

§ Identity

Operator
Country
US
Launch date
2024-05-06
Launch site
AFETR
Launch vehicle
Mass (kg)
RCS (m²)

Purposes: comms

External: N2YO · Heavens-Above · Gunter

§ Orbital elements

Epoch: 2026-09-21T09:29:56.928192Z

Period
94.27 min
Inclination
43.0048°
Eccentricity
0.0001715
Mean motion
15.27576991 rev/d
Perigee alt
481.9 km
Apogee alt
484.2 km
Semi-major
6,861.2 km
B*
1.6653e-5
RAAN
16.5631°
Arg perigee
278.1569°
Mean anomaly
81.9088°
Rev number
13,430

§ Raw data

STARLINK-319171 59669U 24084R   26264.39579778  .00000196  00000+0  16653-4 0  99982 59669  43.0048  16.5631 0001715 278.1569  81.9088 15.27576991134307

JSON: /api/v1/satellites/59669 · /tle

For live sub-satellite position, see the globe view (requires WebGL).

§ Visibility from observer

Set your observer location to see the next 7 days of passes ≥ 10°. The values pass through the URL so the page stays shareable.

No JS? Fill the form by hand. The geolocation button needs JavaScript.